Location: Unspecified
(0.0000°N, 0.0000°E)
Time: 14:02:55
(UTC+00:00)

Vanguard 2 - Visible Passes

Search period start: 29 September 2023 00:00
Search period end: 09 October 2023 00:00
Orbit: 552 x 2924 km, 32.9° (Epoch: 29 September)

Date Brightness Start Highest point End Pass type
(mag) Time Alt. Az. Time Alt. Az. Time Alt. Az.
29 Sep 9.4 03:49:32 15° SSE 03:49:32 15° SSE 03:50:30 10° SSE visible
29 Sep 11.3 19:09:46 10° NW 19:16:44 14° NNW 19:22:44 10° N visible
30 Sep 9.4 04:04:41 12° S 04:04:41 12° S 04:05:22 10° SSE visible
30 Sep 11.3 19:30:10 10° NW 19:33:45 11° NNW 19:37:01 10° N visible
03 Oct 11.4 17:59:58 10° NW 18:09:20 16° NNW 18:17:35 10° NNE visible
04 Oct 11.5 18:19:14 10° NW 18:26:35 14° NNW 18:33:08 10° NNE visible
05 Oct 11.4 18:38:16 10° NNW 18:44:00 12° N 18:49:10 10° NNE visible
05 Oct 11.2 20:55:24 10° NNW 20:56:57 11° N 20:56:57 11° N visible
06 Oct 11.2 18:56:16 10° NNW 19:01:28 12° N 19:06:08 10° NNE visible
06 Oct 11.2 21:10:07 10° NNW 21:11:42 12° NNW 21:11:42 12° NNW visible
07 Oct 11.1 19:12:59 10° NNW 19:18:54 13° N 19:24:04 10° NNE visible
07 Oct 11.3 21:25:07 10° NNW 21:26:28 12° NNW 21:26:28 12° NNW visible
08 Oct 11.0 19:28:51 10° NNW 19:36:11 15° N 19:40:02 13° NNE visible
08 Oct 11.4 21:40:18 10° NNW 21:41:16 12° NNW 21:41:16 12° NNW visible
